User: anonymous   Login
Location: Brno
(49.2000°N, 16.6330°E)
Time: 21:27:24
(UTC+01:00)
Language:

Meteor 1-4 Rocket - Orbit

View from above orbital plane
View from above orbital plane
View from above satellite
View from above satellite

Ground track
Ground track

The orbit data is extracted from the following two-line orbital elements,

1 04394U 70037B   16345.20619357  .00001706  00000-0  60506-4 0  9994
2 04394  81.2436 236.6260 0042493  49.9861 310.5090 15.27575496535912
Epoch (UTC): 10 December 2016 04:56:55
Eccentricity: 0.0042493
inclination: 81.2436°
perigee height: 454 km
apogee height: 512 km
right ascension of ascending node: 236.6260°
argument of perigee: 49.9861°
revolutions per day: 15.27575496
mean anomaly at epoch: 310.5090°
orbit number at epoch: 53591

The dashed part of the orbit path shows where the satellite is in the earth's shadow,  

DLR